STARLINK-4600 (53628 NORAD) Tracking and Keplerian Element Data

This shows tracking and keplerian element data for the satellite.

Feedback or suggestion? Click here.




ElementValue
Catalog53628
NameSTARLINK-4600
Epoch Orbit1325
Epoch Day325.33334491
Epoch Year2022
RAAN240.2489
Inclination53.2177
Eccentricity0.0001777
Argument of Perigee41.7655
Mean Anonmoly342.5096
Mean Motion15.0882724
Decay Rate2.408E-05
L11 53628U 22104AS 22325.33334491 .00002408 00000+0 16942-3 0 9995
L22 53628 53.2177 240.2489 0001777 41.7655 342.5096 15.08827240 13257



Live tracking and technical data element details for STARLINK-4600 (NORAD 53628). STARLINK-4600 can be tracked NOW for your location showing map with azimuth and elevation plus other details from your city location.







IsCatalogInMostPopularTable: catalog: 53628, numindb: 3
Update: records affected: 1



GetName: 53628 STARLINK-4600

Hit Count: updated at: Thu, 08 Dec 2022 20:21:23 GMT